[[{"header":{"parameterUnit":"m.s-1","parameterCategory":1,"la1":30.2992,"la2":30.254,"lo1":-89.0895,"lo2":-89.0443,"dy":0.0025,"dx":0.0025,"nx":19,"ny":19,"refTime":"2026-04-23T03:00:00:Z","depth":0,"parameterNumber":2,"parameterNumberName":"U-component_of_WINDS"},"data":[0,0,0,-2.9472,-2.9473,-2.9551,-2.9552,-2.9654,-2.9655,0,0,0,0,0,0,0,0,0,0,0,-2.945,-2.9451,-2.9471,-2.9473,-2.9551,-2.9552,-2.9653,-2.9655,0,0,0,0,0,0,0,0,0,0,0,-2.945,-2.9451,-2.9452,-2.9474,-2.9551,-2.9552,-2.9653,-2.9593,0,0,0,0,0,0,0,0,0,0,-2.9517,-2.95,-2.9451,-2.9452,-2.9474,-2.9551,-2.9552,-2.959,-2.9597,-2.9619,0,-2.964,0,-2.9649,-2.9662,-2.9662,0,0,0,-2.9472,-2.9494,-2.9514,-2.9452,-2.9475,-2.9551,-2.9516,-2.9594,-2.9602,-2.9628,-2.9642,-2.9645,-2.9651,-2.9662,-2.9663,-2.9799,-2.9799,0,0,-2.9467,-2.9465,-2.9508,-2.9519,-2.9507,-2.9513,-2.9518,-2.9599,-2.9613,-2.9642,-2.9648,-2.9653,-2.9663,-2.9664,-2.9798,-2.9799,0,0,0,-2.9456,-2.9462,-2.948,-2.9514,-2.9528,-2.9515,-2.9521,-2.9609,-2.9615,-2.9649,-2.9654,-2.9664,-2.9665,-2.9797,-2.9798,-2.9831,0,0,0,-2.9453,-2.9456,-2.9478,-2.9477,-2.9527,-2.957,-2.953,-2.961,-2.9619,-2.9653,-2.9664,-2.9666,-2.9797,-2.9798,-2.9828,-2.9846,0,0,0,-2.9445,-2.9454,-2.9467,-2.9477,-2.951,-2.9569,-2.9579,-2.9612,-2.9622,-2.9662,-2.9666,-2.9796,-2.9798,-2.9826,-2.9843,-2.9881,0,0,0,-2.9434,-2.9494,-2.9467,-2.9536,-2.951,-2.9589,-2.9579,-2.9638,-2.9676,-2.9664,-2.9797,-2.9798,-2.9825,-2.984,-2.9879,-2.9912,-2.9926,0,0,-2.9508,-2.9503,-2.9544,-2.9522,-2.9605,-2.9577,-2.9665,-2.9702,-2.9708,-2.9768,-2.9771,-2.9829,-2.9842,-2.988,-3.0008,-3.002,0,0,0,-2.9567,-2.9596,-2.9619,-2.9655,-2.9686,-2.9713,-2.9737,-2.9751,-2.9803,-2.9739,-2.9854,-2.9862,-2.9885,-2.9901,-2.991,-2.9929,-2.9806,-2.9806,-2.9806,-2.9667,-2.9672,-2.974,-2.9755,-2.9791,-2.9816,-2.9846,-2.9868,-2.9862,-2.989,-2.9907,-2.9984,-3.0003,-3.001,-3.003,-2.9926,-2.9926,-2.9927,-2.9927,-2.9776,-2.9818,-2.981,-2.9872,-2.9878,-2.993,-2.9957,-2.9951,-3.0001,-2.9971,-2.9991,-2.9957,-3.0022,-3.004,-2.9929,-2.9929,-2.9928,-2.9928,-2.9928,-2.9841,-2.9862,-2.9879,-2.9933,-2.9975,-2.9988,-3.0036,-3.0039,-3.0042,-3.0062,-3.008,-3.008,-3.0079,-3.0071,-3.0071,-3.0072,-3.0072,-3.0072,-3.0072,-2.9901,-2.992,-2.996,-2.9999,-3.0023,-3.0056,-3.0083,-3.0107,-3.0134,-3.0132,-3.0132,-3.0123,-3.0028,-3.0003,-3.0076,-3.0076,-3.0075,-3.0075,-3.0074,-3.0007,-2.9984,-3.0047,-3.0071,-3.0117,-3.0158,-3.0162,-3.0211,-3.0231,-3.0255,-3.0243,-3.0173,-3.0167,-3.0159,-3.0138,-3.0242,-3.0242,-3.0242,-3.0242,-3.0061,-3.006,-3.0124,-3.0164,-3.0203,-3.0213,-3.0283,-3.0305,-3.0324,-3.0337,-3.0323,-3.0296,-3.0289,-3.0287,-3.0277,-3.0258,-3.0389,-3.0389,-3.0389,-3.0126,-3.0129,-3.0187,-3.0206,-3.0243,-3.0274,-3.034,-3.0385,-3.0402,-3.0395,-3.0347,-3.0341,-3.0298,-3.0284,-3.0275,-3.0259,-3.0223,0,0]},{"header":{"parameterUnit":"m.s-1","parameterCategory":1,"la1":30.2992,"la2":30.254,"lo1":-89.0895,"lo2":-89.0443,"dy":0.0025,"dx":0.0025,"nx":19,"ny":19,"refTime":"2026-04-23T03:00:00:Z","depth":0,"parameterNumber":3,"parameterNumberName":"V-component_of_WINDS"},"data":[0,0,0,4.0211,4.0213,4.0305,4.0306,4.0422,4.0423,0,0,0,0,0,0,0,0,0,0,0,4.0186,4.0187,4.0211,4.0214,4.0305,4.0306,4.0421,4.0423,0,0,0,0,0,0,0,0,0,0,0,4.0185,4.0186,4.0187,4.0214,4.0305,4.0306,4.0421,4.0352,0,0,0,0,0,0,0,0,0,0,4.0263,4.0241,4.0186,4.0187,4.0214,4.0305,4.0306,4.0349,4.0356,4.038,0,4.0404,0,4.0416,4.0431,4.0431,0,0,0,4.0212,4.0235,4.0258,4.0188,4.0215,4.0305,4.0263,4.0353,4.0361,4.0391,4.0406,4.041,4.0418,4.0431,4.0432,4.0582,4.0583,0,0,4.0207,4.0202,4.0252,4.0264,4.0253,4.026,4.0266,4.0358,4.0374,4.0406,4.0413,4.0419,4.0432,4.0433,4.0582,4.0583,0,0,0,4.0193,4.0199,4.022,4.0259,4.0276,4.0263,4.027,4.037,4.0377,4.0414,4.0421,4.0433,4.0434,4.0581,4.0582,4.0617,0,0,0,4.019,4.0191,4.0218,4.0216,4.0275,4.0325,4.0279,4.0371,4.0381,4.042,4.0433,4.0436,4.058,4.0581,4.0614,4.0634,0,0,0,4.0179,4.019,4.0204,4.0216,4.0256,4.0323,4.0336,4.0373,4.0385,4.0431,4.0436,4.0579,4.0581,4.0612,4.063,4.0672,0,0,0,4.0165,4.0233,4.0205,4.0283,4.0255,4.0345,4.0335,4.0402,4.0446,4.0434,4.058,4.0582,4.0611,4.0627,4.0669,4.0706,4.0721,0,0,4.0249,4.0243,4.0289,4.0266,4.0361,4.0331,4.043,4.0473,4.048,4.0547,4.0551,4.0615,4.0629,4.0671,4.081,4.0822,0,0,0,4.0314,4.0347,4.0373,4.0416,4.0452,4.0483,4.0512,4.0527,4.0585,4.0515,4.0642,4.0651,4.0676,4.0693,4.0704,4.0724,4.059,4.059,4.059,4.0425,4.0432,4.0509,4.0527,4.0568,4.0597,4.063,4.0656,4.065,4.068,4.0699,4.0783,4.0804,4.0812,4.0833,4.072,4.072,4.0721,4.0721,4.0546,4.0594,4.0586,4.0657,4.0663,4.0722,4.0752,4.0746,4.0801,4.0769,4.0791,4.0754,4.0825,4.0844,4.0723,4.0723,4.0723,4.0722,4.0722,4.0619,4.0643,4.0662,4.0724,4.0771,4.0786,4.0839,4.0843,4.0846,4.0868,4.0888,4.0888,4.0886,4.0878,4.0878,4.0878,4.0879,4.0879,4.0879,4.0686,4.0707,4.0752,4.0796,4.0824,4.086,4.089,4.0916,4.0946,4.0944,4.0944,4.0934,4.0831,4.0804,4.0883,4.0883,4.0882,4.0882,4.0881,4.0805,4.0779,4.0849,4.0877,4.0928,4.0973,4.0978,4.1031,4.1053,4.1079,4.1065,4.0988,4.0982,4.0974,4.0952,4.1064,4.1064,4.1064,4.1064,4.0865,4.0863,4.0936,4.098,4.1023,4.1034,4.1111,4.1134,4.1154,4.1168,4.1152,4.1124,4.1115,4.1114,4.1103,4.1082,4.1225,4.1225,4.1225,4.0938,4.0941,4.1007,4.1028,4.1068,4.1102,4.1174,4.1223,4.1239,4.1232,4.1178,4.1172,4.1125,4.111,4.11,4.1083,4.1045,0,0]}]]